Home   Weather   Schweinfurt   Past weeks

Flag for Germany Past Weather in Schweinfurt, Bavaria, Germany — Yesterday and Last 2 Weeks

Now
41 °F

Overcast.


Feels Like: 36 °F
Forecast: 45 / 50 °F
Wind: 8 mph from Southwest

Location: Illesheim

Current Time: Feb 20, 2017 at 7:27:59 am

Latest Report: Feb 20, 2017 at 6:58 am


Visibility: N/A

Pressure: 30.21 "Hg

Humidity: 88%

Dew Point: 38 °F

Location of SchweinfurtLocation

Past Weather in Schweinfurt — Graph

°F

Schweinfurt Temperature Yesterday

Maximum temperature yesterday: 45 °F (at 1:58 pm)
Minimum temperature yesterday: 21 °F (at 6:35 am)
Average temperature yesterday: 32 °F

High & Low Weather Summary for the Past Weeks

 TemperatureHumidityPressure
High56 °F (Feb 16, 1:58 pm)100% (Feb 7, 3:58 am)30.63 "Hg (Feb 7, 3:58 am)
Low21 °F (Feb 15, 6:58 am)42% (Feb 14, 3:58 pm)29.63 "Hg (Feb 5, 2:58 pm)
Average35 °F87%30.29 "Hg
* Reported Feb 5 5:58 am — Feb 20 5:58 am, Schweinfurt, Weather by CustomWeather, © 2017

Note: Actual official high and low records may vary slightly from our data, if they occured in-between our weather recording intervals... More about our weather records

Advertising

Schweinfurt Weather History for the Previous 24 Hours

Scroll right to see more
 ConditionsComfort  
Time TempWeatherWind HumidityBarometerVisibility
5:58 am
Mon, Feb 20
41 °FMostly cloudy.6 mph87%30.21 "HgN/A
4:58 am41 °FMostly cloudy.6 mph87%30.22 "HgN/A
3:58 am40 °FOvercast.7 mph92%30.21 "HgN/A
2:58 am40 °FMostly cloudy.5 mph92%30.21 "HgN/A
1:58 am41 °FMostly cloudy.7 mph93%30.21 "HgN/A
12:58 am42 °FMostly cloudy.9 mph87%30.22 "HgN/A
11:58 pm
Sun, Feb 19
41 °FOvercast.10 mph93%30.22 "HgN/A
10:58 pm41 °FOvercast.9 mph87%30.22 "HgN/A
9:58 pm40 °FMostly cloudy.6 mph93%30.23 "HgN/A
8:58 pm39 °FOvercast.6 mph96%30.24 "HgN/A
8:30 pm39 °FPartly cloudy.6 mph100%30.19 "HgN/A
8:09 pm39 °FLight rain. Passing clouds.14 mph93%30.19 "HgN/A
7:58 pm40 °FPassing clouds.6 mph91%30.24 "HgN/A
7:34 pm39 °FLight rain. Partly cloudy.7 mph93%30.18 "HgN/A
7:12 pm39 °FPartly cloudy.5 mph93%30.18 "HgN/A
6:58 pm39 °FLight rain. Passing clouds.10 mph93%30.25 "HgN/A
6:42 pm39 °FLight rain. Passing clouds.8 mph87%30.19 "HgN/A
5:58 pm39 °FPassing clouds.7 mph89%30.24 "HgN/A
4:58 pm41 °FScattered clouds.8 mph81%30.23 "HgN/A
3:58 pm43 °FPassing clouds.10 mph76%30.24 "HgN/A
2:58 pm44 °FBroken clouds.13 mph74%30.24 "HgN/A
1:58 pm45 °FScattered clouds.8 mph72%30.24 "HgN/A
12:58 pm44 °FScattered clouds.6 mph74%30.26 "HgN/A
11:58 am43 °FScattered clouds.10 mph81%30.28 "HgN/A
10:58 am40 °FSunny.8 mph100%30.29 "HgN/A
9:58 am32 °FSunny.No wind100%30.31 "HgN/A
8:58 am26 °FSunny.No wind100%30.31 "HgN/A
8:20 am23 °FIce fog.No wind100%30.26 "Hg5 mi
7:58 am23 °FIce fog.No wind100%30.32 "Hg5 mi
7:36 am21 °FIce fog.No wind100%30.25 "Hg4 mi
7:05 am21 °FIce fog.No wind100%30.25 "Hg6 mi
7:01 am21 °FIce fog.No wind100%30.25 "Hg1 mi
Weather by CustomWeather, © 2017

See weather overviewHow to use our weather pages